Weather in Vorontsovka

Russia / Omsk Oblast     54°19′44″N   71°29′48″E
temp.,
°C
wind,
m/s
gust,
m/s
humid.,
%
clouds,
%
prec.,
mm/h
press.,
hPa
HPBL,
m
22 april, thu
thu2200:00+1ene48632 0.0 1035327
03:00−1ene37720 0.0 1038253
06:00−2ene36720 0.0 1040313
09:000e45500 0.0 1042741
12:00+4ese34390 0.0 10431142
15:00+6se44334 0.0 10431281
18:00+7se45310 0.0 10431335
21:00+4se47440 0.0 1044136
23 april, fri
fri2300:00+2se49565 0.0 1044185
03:000se496297 0.0 1044163
06:000sse496577 0.0 1044218
09:00+4sse584780 0.0 1045542
12:00+7sse563565 0.0 10441304
15:00+9sse6629100 0.0 10421554
18:00+9sse6629100 0.0 10401577
21:00+6se51042100 0.0 1040237
24 april, sat
sat2400:00+4sse51250100 0.0 1039295
03:00+3sse51158100 0.0 1037251
06:00+1se4963100 0.0 1037178
09:00+5sse61047100 0.0 1036456
12:00+9sse7833100 0.0 10341242
15:00+10sse6727100 0.0 10321571
18:00+10sse5730100 0.0 10301466
21:00+8se4940100 0.0 1029218
25 april, sun
sun2500:00+7se51145100 0.0 1028297
03:00+6se51150100 0.0 1027281
06:00+5se61252100 0.0 1025322
09:00+7se71245100 0.0 1024475
12:00+12se8103394 0.0 10231039
15:00+15sse91022100 0.0 10202179
18:00+15sse783299 0.0 10202012
21:00+11se6134196 0.0 1019321
26 april, mon
mon2600:00+10sse5114485 0.0 1019268
03:00+8wsw227655 0.0 101919
06:00+7sw338553 0.0 101933
09:00+10sw5868100 0.0 1019367
12:00+15w81042100 0.0 10191969
15:00+15w81131100 0.0 10202279
18:00+15w71028100 0.0 10202053
21:00+11w3539100 0.0 102161